#timestamp,LO_Frequency,Hit,StdDev 
1505577615.8,286047000.6,N
1505577635.7,286047001.2,N
1505577655.5,286046998.8,N
1505577675.4,286046998.5,N
1505577695.2,286046998.5,N
1505577715.0,286047000.8,N
1505577715.9,286047000.8,N
1505577735.8,286047000.7,N
1505577755.6,286046999.8,N
1505577775.5,286047000.2,N
1505577795.3,286046998.1,N
1505577815.1,286046998.5,N
1505577835.9,286046998.1,N
1505577855.7,286046998.9,N
1505577875.5,286046996.5,N
1505577895.4,286046998.3,N
1505577915.2,286047001.2,N
1505577935.1,286046998.4,N
1505577936.0,286046998.4,N
1505577955.8,286046999.2,N
1505577975.6,286046999.6,N
1505577995.5,286046997.7,N
1505578015.3,286046997.2,N
1505578035.2,286046995.3,Y
1505578055.9,286046995.0,P
1505578075.7,286046997.9,N
1505578095.6,286046999.0,N
1505578115.4,286046997.0,N
1505578135.2,286046998.7,N
1505578155.1,286047001.2,N
1505578156.0,286047001.2,N
1505578175.8,286046999.0,N
1505578195.7,286046998.7,N
1505578215.5,286046997.7,N
1505578235.3,286046995.0,N
1505578255.2,286046997.6,N
1505578275.0,286046997.5,N
1505578275.9,286046997.5,N
1505578295.7,286046996.7,N
1505578315.6,286046997.1,N
1505578335.4,286046997.4,N
1505578355.3,286046999.2,N
1505578375.1,286046997.3,N
1505578376.0,286046997.3,N
1505578395.8,286046997.2,N
1505578415.7,286046999.2,N
1505578435.5,286047003.5,N
1505578455.4,286047006.8,Y
1505578475.2,286047009.8,P
1505578495.0,286047011.4,N
1505578495.9,286047011.4,N
1505578515.8,286047011.6,N
1505578535.6,286047013.2,N
1505578555.4,286047015.2,Y
1505578575.3,286047009.0,P
1505578595.1,286047009.4,P
1505578615.9,286047009.5,P
1505578635.7,286047004.6,Y
1505578655.5,286046996.3,P
1505578675.4,286046992.5,N
1505578695.2,286046994.5,N
1505578715.1,286046999.2,N
1505578716.0,286046999.2,N
1505578735.8,286047008.8,N
1505578755.6,286047014.4,N
1505578775.5,286047016.7,N
1505578795.3,286047018.0,N
1505578815.1,286047012.6,N
1505578835.9,286047007.4,N
1505578855.7,286047000.0,N
1505578875.6,286046993.5,N
1505578895.4,286046992.8,N
1505578915.2,286046989.5,N
1505578935.1,286046985.6,N
1505578936.0,286046985.6,N
1505578955.8,286046985.0,N
1505578975.7,286046983.5,N
1505578995.5,286046981.7,N
1505579015.3,286046980.8,N
1505579035.2,286046981.5,N
1505579055.0,286046981.1,N
1505579055.9,286046981.1,N
1505579075.8,286046978.9,N
1505579095.6,286046979.6,N
1505579115.4,286046980.1,N
1505579135.3,286046979.7,N
1505579155.1,286046980.2,N
1505579175.9,286046977.6,N
1505579195.7,286046977.6,N
1505579215.5,286046980.4,N
1505579235.4,286046980.2,N
1505579255.2,286046977.7,N
1505579275.1,286046980.1,N
1505579276.0,286046980.1,N
1505579295.8,286046977.7,N
1505579315.6,286046979.9,N
1505579335.5,286046979.5,N
1505579355.3,286046980.1,N
1505579375.1,286046979.5,Y
1505579395.9,286046995.4,P
1505579415.7,286046995.3,N
1505579435.6,286046995.4,N
1505579455.4,286046996.2,N
1505579475.2,286046996.1,N
1505579495.1,286046995.5,N
1505579496.0,286046995.5,N
1505579515.8,286046995.8,N
1505579535.7,286046998.0,N
1505579555.5,286046995.0,N
1505579575.3,286046995.5,N
1505579595.2,286046995.0,N
1505579615.0,286046995.3,N
1505579615.9,286046995.3,N
1505579635.7,286046995.4,N
1505579655.6,286046995.2,N
1505579675.4,286046997.5,N
1505579695.3,286046995.3,N
1505579715.1,286046997.5,N
1505579735.8,286046994.9,N
1505579755.7,286046997.7,N
1505579775.5,286046997.4,N
1505579795.4,286046999.2,N
1505579815.2,286046997.0,N
1505579835.0,286046996.5,N
1505579835.9,286046996.5,N
1505579855.8,286046999.3,N
1505579875.6,286046999.5,N
1505579895.4,286046998.5,N
1505579915.3,286046998.4,N
1505579935.1,286046998.5,N
1505579955.9,286046998.7,N
1505579975.7,286046996.5,N
1505579995.5,286046999.6,N
1505580015.4,286046998.8,N
1505580035.2,286046998.4,N
1505580055.1,286046998.1,N
1505580056.0,286046998.1,N
1505580075.8,286046998.7,N
1505580095.6,286047001.0,N
1505580115.5,286047000.7,N
1505580135.3,286047001.2,N
1505580155.1,286046998.5,N
1505580175.9,286046998.3,N
1505580195.7,286047000.4,N
1505580215.6,286047000.3,N
1505580235.4,286047000.8,N
1505580255.2,286047002.3,N
1505580275.1,286046999.9,N
1505580276.0,286046999.9,N
1505580295.8,286047000.7,N
1505580315.7,286047000.4,N
1505580335.5,286047001.1,N
1505580355.3,286047000.6,N
1505580375.2,286047000.4,N
1505580395.0,286047002.4,N
1505580395.9,286047002.4,N
1505580415.8,286047002.8,N
1505580435.6,286047000.4,N
1505580455.4,286047000.5,N
1505580475.3,286047000.6,N
1505580495.1,286047002.6,N
1505580515.8,286047000.6,N
1505580535.7,286047001.1,N
1505580555.5,286047000.6,N
1505580575.4,286046999.9,N
1505580595.2,286047011.9,Y
1505580615.0,286047000.2,P
1505580615.9,286047000.2,N
1505580635.8,286047000.8,P
1505580655.6,286047002.8,Y
1505580675.5,286047000.2,P
1505580695.3,286047000.6,P
1505580715.1,286047002.8,P
1505580735.9,286047000.9,N
1505580755.7,286046999.8,N
1505580775.6,286046999.8,N
1505580795.4,286047002.5,N
1505580815.2,286047002.6,N
1505580835.1,286047002.2,N
1505580836.0,286047002.2,N
1505580855.8,286047002.0,N
1505580875.6,286047000.6,N
1505580895.5,286047000.9,N
1505580915.3,286047002.7,N
1505580935.2,286047000.1,N
1505580955.0,286046999.9,N
1505580955.9,286046999.9,N
1505580975.8,286046999.9,N
1505580995.6,286047002.3,N
1505581015.4,286047004.0,Y
1505581035.3,286047000.6,P
1505581055.1,286047002.4,P
1505581075.8,286047000.1,N
1505581095.7,286047002.7,Y
1505581115.5,286047004.4,P
1505581135.4,286047004.8,N
1505581155.2,286047005.0,N
1505581175.0,286047003.9,N
1505581175.9,286047003.9,N
1505581195.8,286047001.5,N
